This demonstration page uses our WeatherBlox Daily Observations layout. Learn more.

Left ArrowRight Arrow

44.8408, -93.29828

Hourly Observations for September 13, 2018

Temp ( °F °C ) Dew Point ( °F °C ) Humidity (%) Winds ( mph kmh ) Pressure ( in mb ) Visibility ( mi km ) Precip ( " mm )
12:53 am 00:53 Clear 70 21.1 59 15 68 68 S 12 19 30.04 1017 10 16 0.00 0.00
1:53 am 01:53 Clear 69 20.6 59 15 70 70 S 9 15 30.04 1017 10 16 0.00 0.00
2:53 am 02:53 Clear 65 18.3 59 15 81 81 SE 7 11 30.03 1017 10 16 0.00 0.00
3:53 am 03:53 Clear 65 18.3 59 15 81 81 SSE 10 17 30.01 1016 10 16 0.00 0.00
4:53 am 04:53 Clear 66 18.9 59 15 78 78 S 12 19 30.03 1017 10 16 0.00 0.00
5:53 am 05:53 Clear 64 17.8 59 15 84 84 SE 9 15 30.03 1017 10 16 0.00 0.00
6:53 am 06:53 Mostly Sunny 64 17.8 59 15 84 84 SE 13 20 30.04 1017 10 16 0.00 0.00
7:53 am 07:53 Mostly Sunny 64 17.8 59 15 84 84 SE 14 22 30.02 1017 10 16 0.00 0.00
8:53 am 08:53 Mostly Sunny 68 20 60 15.6 76 76 SSE 15 24 30.02 1017 10 16 0.00 0.00
9:53 am 09:53 Mostly Sunny 72 22.2 61 16.1 68 68 SSE 13 20 30.03 1017 10 16 0.00 0.00
10:53 am 10:53 Mostly Cloudy 75 23.9 62 16.7 64 64 S 14 22 30.03 1017 10 16 0.00 0.00
11:53 am 11:53 Mostly Sunny 79 26.1 63 17.2 58 58 S 15 24 30.01 1016 10 16 0.00 0.00
12:53 pm 12:53 Partly Cloudy 81 27.2 63 17.2 54 54 SSW 22 35 29.98 1015 10 16 0.00 0.00
1:53 pm 13:53 Mostly Cloudy 83 28.3 64 17.8 53 53 S 20 31 29.97 1015 10 16 0.00 0.00
2:53 pm 14:53 Partly Cloudy 83 28.3 64 17.8 53 53 S 20 31 29.95 1014 10 16 0.00 0.00
3:53 pm 15:53 Mostly Cloudy 85 29.4 64 17.8 50 50 S 17 28 29.94 1014 10 16 0.00 0.00
4:53 pm 16:53 Partly Cloudy 84 28.9 64 17.8 51 51 S 18 30 29.93 1014 10 16 0.00 0.00
5:53 pm 17:53 Partly Cloudy 84 28.9 65 18.3 53 53 S 12 19 29.93 1014 10 16 0.00 0.00
6:53 pm 18:53 Mostly Sunny 83 28.3 65 18.3 55 55 S 14 22 29.93 1014 10 16 0.00 0.00
7:53 pm 19:53 Partly Cloudy 80 26.7 65 18.3 60 60 S 10 17 29.94 1014 10 16 0.00 0.00
8:53 pm 20:53 Partly Cloudy 78 25.6 65 18.3 64 64 SSE 9 15 29.96 1015 10 16 0.00 0.00
9:53 pm 21:53 Partly Cloudy 76 24.4 66 18.9 72 72 SSE 9 15 29.96 1015 10 16 0.00 0.00
10:53 pm 22:53 Partly Cloudy 75 23.9 66 18.9 74 74 SSE 9 15 29.97 1015 10 16 0.00 0.00
11:53 pm 23:53 Mostly Clear 75 23.9 65 18.3 71 71 S 15 24 29.97 1015 10 16 0.00 0.00

Powered by AerisWeather